SCOUT B R/B, 2206

Orbit data source: Space-Track

SCOUT B R/B, 2206 is space debris in LEO originally from a launch on Fri, 10 Jun 1966 UTC launched from the Wallops Island (WLPIS). Debris objects in space refer to the collection of defunct objects orbiting the Earth. Examples of debris include non-operational satellites, rocket bodies, and fragments generated from explosions, collisions, or faulty payload assembly.

Loading next visibility...
Identifier
2206, 1966-052B
Orbit
LEO
Country
Flag of USUS
Related business
Manufacturer
UTC
Mission
Spacecraft
Bus & Motor
FW4, Unknown motor
Mass
47 kg wet, 47 kg dry
Launch date (UTC)
1966-06-10 (60 years ago)
Launch vehicle
Unknown
Launch site
Wallops Island (WLPIS)
Object type
Payload
Rocket body
Debris
Shape & HBR
Unknown
Radar Cross Section
Medium (>0.1 m² and <1 m²)

Expand to show TLE details & history
Last TLE update: 11 hours ago

TLE from 11 hours ago
0 SCOUT B R/B
1  2206U 66052B   26130.02700381  .00000077  00000-0  12692-3 0  9999
2  2206  40.8691 133.3297 2214702 259.0768  75.4735 10.14631140198902
Epoch: 2026-05-10T00:38Z
TLE epoch observation values (Epoch: 2026-05-10T00:38:53.129Z)
Latitude
-0.00003°
Longitude
-104.22769°
Altitude
2,570.056 km
Speed
6.7 km/s
True Right ascension
08h 53m 19s
True Declination
0° 00' 00"
Sunlit
Object was in daylight at epoch
Visualization orbit readout
Latitude
Unknown
Longitude
Unknown
Altitude
Unknown
Speed
Unknown
Apparent Right ascension
Unknown
Apparent Declination
Unknown
Sunlit
N/A
Visualization observer readout
Local Sidereal Time
19:47:11
Azimuth
Unknown
Elevation
Unknown
Doppler factor
Unknown
Orbital elements
Apogee altitude
4,633.124 km
Perigee altitude
640.122 km
Semi-major axis
9,014.76 km
Eccentricity
0.22147
Inclination
40.8691°
RAAN
133.3297°
Arg. of periapsis
259.0768°
True anomaly
100.99099°
Mean anomaly
75.4735°
Eccentric anomaly
88.15624°
Mean motion
2.53578 °/min
Orbital period
141.97 mins
BSTAR
0.00012692
Loading maneuver chart data...
Computing Atmospheric mass density...
Loading historical data...
Loading historical data...
Loading historical data...
Loading historical data...
Loading historical data...
Loading historical data...
Loading historical data...
Other satellites on launch #52 in the year 1966 (1966-06-10 UTC)

Documentation

Showing up to 5 results
|